Flag for Barbados Weather past 2 weeks in Bridgetown, Barbados

Now
81 °F

Broken clouds.


Feels Like: 86 °F
Forecast: 81 / 87 °F
Wind: 7 mph from East

Location: Grantley Adams

Current Time: Oct 24, 2014 at 6:36:29 AM

Latest Report: Oct 24, 2014 at 6:00 AM


Visibility: N/A

Pressure: 29.89 "Hg

Humidity: 84%

Dew point: 75 °F

Location of BridgetownLocation

Historic Weather in Bridgetown — Graph

°F

Bridgetown temperature yesterday

Maximum temperature yesterday: 82 °F (at 12:00 AM)
Minimum temperature yesterday: 75 °F (at 9:00 AM)
Average temperature yesterday: 79 °F

Past Weeks' High & Low Weather Summary

 TemperatureHumidityPressure
High88 °F (Oct 10, 11:00 AM)100% (Oct 21, 6:00 AM)30.01 "Hg (Oct 21, 6:00 AM)
Low73 °F (Oct 19, 1:00 AM)62% (Oct 19, 9:00 AM)29.77 "Hg (Oct 9, 4:00 PM)
Average82 °F81%29.90 "Hg
* Reported Oct 9 5:00 AM — Oct 24 5:00 AM, Bridgetown, Weather by CustomWeather, © 2014

Note: Actual official high and low records may vary slightly from our data, if they occured in-between our weather recording intervals... More about our weather records

Advertising

Bridgetown weather history for previous 24 hours

 ConditionsComfort  
Time TempWeatherWind HumidityBarometerVisibility
5:00 AM
Oct 24
81 °FPartly cloudy.7 mph84%29.86 "HgN/A
4:00 AM81 °FPassing clouds.10 mph84%29.86 "HgN/A
3:00 AM81 °FPartly cloudy.14 mph84%29.89 "HgN/A
2:00 AM81 °FPassing clouds.13 mph89%29.89 "HgN/A
1:00 AM81 °FSprinkles. Partly cloudy.12 mph89%29.92 "HgN/A
12:00 AM81 °FSprinkles. Partly cloudy.14 mph89%29.92 "HgN/A
11:00 PM
Oct 23
77 °FPartly cloudy.3 mph94%29.92 "HgN/A
10:00 PM77 °FThundershowers. Partly cloudy.9 mph89%29.95 "HgN/A
9:00 PM77 °FSprinkles. Passing clouds.8 mph94%29.92 "HgN/A
8:00 PM79 °FThundershowers. Partly cloudy.7 mph94%29.92 "HgN/A
7:00 PM79 °FPassing clouds.3 mph94%29.89 "HgN/A
6:00 PM81 °FThundershowers. Partly cloudy.8 mph89%29.86 "HgN/A
5:00 PM81 °FBroken clouds.3 mph84%29.86 "HgN/A
4:00 PM82 °FPartly sunny.2 mph79%29.83 "HgN/A
3:00 PM81 °FPartly sunny.7 mph89%29.83 "HgN/A
2:00 PM81 °FBroken clouds.6 mph89%29.86 "HgN/A
1:00 PM81 °FPartly sunny.3 mph84%29.89 "HgN/A
12:00 PM79 °FLight rain. Partly sunny.3 mph89%29.95 "HgN/A
11:00 AM79 °FLight rain. Partly sunny.13 mph94%29.95 "Hg6 mi
10:00 AM75 °FLight rain. Broken clouds.7 mph100%29.95 "Hg6 mi
9:00 AM75 °FLight rain. Broken clouds.8 mph94%29.95 "Hg5 mi
8:00 AM79 °FScattered showers. Broken clouds.13 mph89%29.92 "Hg6 mi
7:00 AM79 °FLight rain. Broken clouds.15 mph84%29.92 "Hg6 mi
6:00 AM81 °FSprinkles. Broken clouds.20 mph89%29.89 "HgN/A
Weather by CustomWeather, © 2014

See weather overviewHow to use our weather pages